Eelde, Netherlands

8:47 PM CET on November 24, 2017 (GMT +0100)
Eelde

Weather History for EHGG - October, 2012

Change the Weather History Date:

Tuesday, October 16, 2012

  Actual Average Record
Temperature  
Mean Temperature 50 °F -  
Max Temperature 54 °F 52 °F 72 °F (2017)
Min Temperature 46 °F 39 °F 28 °F (1997)
Degree Days  
Heating Degree Days 15    
Moisture  
Dew Point 45 °F    
Average Humidity 83    
Maximum Humidity 93    
Minimum Humidity 69    
Precipitation  
Precipitation 0.04 in 0.10 in - ()
Sea Level Pressure  
Sea Level Pressure 29.61 in    
Wind  
Wind Speed 13 mph ()    
Max Wind Speed 20 mph    
Max Gust Speed -    
Visibility 6.6 miles    
Events Rain    
Averages and records for this station are not official NWS values.
T = Trace of Precipitation, MM = Missing Value Source: Averaged Metar Reports

Daily Weather History Graph

Daily Weather History Graph

Search for Another Location

Airport or City:

Trip Planner

Search our weather history database for the weather conditions in past years. The results will help you decide how hot, cold, wet, or windy it might be!

Date:

Astronomy

Oct. 16, 2012 Rise Set
Actual Time 8:02 AM CEST 6:34 PM CEST
Civil Twilight 7:27 AM CEST 7:09 PM CEST
Nautical Twilight 6:47 AM CEST 7:50 PM CEST
Astronomical Twilight 6:06 AM CEST 8:30 PM CEST
Moon 9:21 AM CEST (10/16) 6:48 PM CEST (10/16)
Length of Visible Light 11h 42m
Length of Day
10h 32m
New Moon, 1% of the Moon is Illuminated
Oct 16
New Moon
Oct 22
First Quarter
Oct 29
Full
Nov 7
Last Quarter
Nov 13
New

Hourly Weather History & Observations

Time (CEST) Temp. Windchill Dew Point Humidity Pressure Visibility Wind Dir Wind Speed Gust Speed Precip Events Conditions
12:25 AM 50.0 °F - 44.6 °F 82% 29.62 in 6.2 mi SSW 15.0 mph - N/A   Partly Cloudy
12:55 AM 50.0 °F - 44.6 °F 82% 29.65 in 6.2 mi SSW 13.8 mph - N/A   Overcast
1:25 AM 50.0 °F - 44.6 °F 82% 29.65 in 6.2 mi SSW 13.8 mph - N/A   Mostly Cloudy
1:55 AM 50.0 °F - 44.6 °F 82% 29.65 in 6.2 mi SSW 13.8 mph - N/A   Scattered Clouds
2:00 AM 50 °F - 45 °F 78% 29.66 in 25 mi SSW 13.4 mph - - Rain Rain
2:25 AM 50.0 °F - 44.6 °F 82% 29.65 in 6.2 mi SSW 12.7 mph - N/A   Mostly Cloudy
2:55 AM 50.0 °F - 44.6 °F 82% 29.65 in 6.2 mi SSW 11.5 mph - N/A   Unknown
3:25 AM 48.2 °F - 44.6 °F 87% 29.65 in 6.2 mi South 10.4 mph - N/A   Unknown
3:55 AM 48.2 °F - 44.6 °F 87% 29.62 in 6.2 mi South 11.5 mph - N/A   Unknown
4:25 AM 46.4 °F 41.1 °F 44.6 °F 93% 29.62 in 6.2 mi South 11.5 mph - N/A   Unknown
4:55 AM 48.2 °F - 44.6 °F 87% 29.62 in 6.2 mi South 12.7 mph - N/A   Unknown
5:00 AM 47 °F - 44 °F 86% 29.64 in 22 mi South 11.2 mph - -   Mostly Cloudy
5:25 AM 48.2 °F - 44.6 °F 87% 29.62 in 6.2 mi South 12.7 mph - N/A   Unknown
5:55 AM 48.2 °F - 44.6 °F 87% 29.62 in 6.2 mi South 13.8 mph - N/A   Unknown
6:25 AM 48.2 °F - 44.6 °F 87% 29.62 in 6.2 mi South 13.8 mph - N/A   Unknown
6:55 AM 48.2 °F - 44.6 °F 87% 29.59 in 6.2 mi South 15.0 mph - N/A   Unknown
7:25 AM 48.2 °F - 44.6 °F 87% 29.59 in 6.2 mi South 15.0 mph - N/A   Unknown
7:55 AM 48.2 °F - 42.8 °F 82% 29.59 in 6.2 mi South 15.0 mph - N/A   Unknown
8:00 AM 47 °F - 44 °F 83% 29.61 in 28 mi South 13.4 mph - -   Partly Cloudy
8:25 AM 48.2 °F - 42.8 °F 82% 29.59 in 6.2 mi South 15.0 mph - N/A   Mostly Cloudy
8:55 AM 48.2 °F - 42.8 °F 82% 29.59 in 6.2 mi South 16.1 mph - N/A   Unknown
9:25 AM 50.0 °F - 42.8 °F 76% 29.56 in 6.2 mi South 17.3 mph - N/A   Partly Cloudy
9:55 AM 48.2 °F - 44.6 °F 87% 29.56 in 6.2 mi South 16.1 mph - N/A Rain Light Rain
10:25 AM 48.2 °F - 44.6 °F 87% 29.56 in 6.2 mi South 15.0 mph - N/A Rain Light Rain Showers
10:55 AM 48.2 °F - 44.6 °F 87% 29.56 in 3.1 mi South 16.1 mph - N/A Rain Drizzle
11:00 AM 47 °F - 46 °F 92% 29.57 in 4 mi South 17.9 mph - - Rain Light Rain
11:25 AM 48.2 °F - 46.4 °F 93% 29.56 in 6.2 mi South 17.3 mph - N/A   Partly Cloudy
11:55 AM 48.2 °F - 46.4 °F 93% 29.56 in 6.2 mi South 16.1 mph - N/A   Overcast
12:25 PM 48.2 °F - 46.4 °F 93% 29.56 in 6.2 mi South 16.1 mph - N/A   Overcast
12:55 PM 50.0 °F - 46.4 °F 87% 29.56 in 6.2 mi South 18.4 mph - N/A   Overcast
1:25 PM 50.0 °F - 46.4 °F 87% 29.56 in 6.2 mi South 15.0 mph - N/A   Overcast
1:55 PM 50.0 °F - 46.4 °F 87% 29.56 in 6.2 mi South 16.1 mph - N/A   Overcast
2:00 PM 51 °F - 47 °F 80% 29.58 in 22 mi South 20.1 mph - -   Partly Cloudy
2:25 PM 51.8 °F - 46.4 °F 82% 29.56 in 6.2 mi South 17.3 mph - N/A   Overcast
2:55 PM 51.8 °F - 48.2 °F 88% 29.56 in 6.2 mi South 16.1 mph - N/A   Overcast
3:25 PM 53.6 °F - 46.4 °F 77% 29.56 in 6.2 mi SSW 17.3 mph - N/A   Mostly Cloudy
3:55 PM 53.6 °F - 48.2 °F 82% 29.56 in 6.2 mi SSW 16.1 mph - N/A   Mostly Cloudy
4:25 PM 53.6 °F - 48.2 °F 82% 29.56 in 6.2 mi SSW 16.1 mph - N/A   Mostly Cloudy
4:55 PM 53.6 °F - 48.2 °F 82% 29.56 in 6.2 mi SSW 12.7 mph - N/A   Overcast
5:00 PM 54 °F - 49 °F 76% 29.58 in 19 mi SSW 13.4 mph - - Rain Rain
5:25 PM 53.6 °F - 48.2 °F 82% 29.56 in 6.2 mi SSW 13.8 mph - N/A   Mostly Cloudy
5:55 PM 53.6 °F - 48.2 °F 82% 29.56 in 6.2 mi SSW 13.8 mph - N/A   Mostly Cloudy
6:25 PM 51.8 °F - 46.4 °F 82% 29.59 in 6.2 mi SW 19.6 mph - N/A   Partly Cloudy
6:55 PM 53.6 °F - 44.6 °F 72% 29.59 in 6.2 mi SW 18.4 mph - N/A   Partly Cloudy
7:25 PM 51.8 °F - 44.6 °F 76% 29.62 in 6.2 mi SSW 15.0 mph - N/A   Partly Cloudy
7:55 PM 51.8 °F - 44.6 °F 76% 29.62 in 6.2 mi SSW 13.8 mph - N/A   Partly Cloudy
8:00 PM 51 °F - 44 °F 69% 29.64 in 14 mi SSW 13.4 mph - -   Partly Cloudy
8:25 PM 50.0 °F - 44.6 °F 82% 29.62 in 6.2 mi SSW 13.8 mph - N/A   Unknown
8:55 PM 50.0 °F - 44.6 °F 82% 29.65 in 6.2 mi SSW 15.0 mph - N/A   Unknown
9:25 PM 51.8 °F - 44.6 °F 76% 29.65 in 6.2 mi SSW 15.0 mph - N/A   Unknown
9:55 PM 51.8 °F - 44.6 °F 76% 29.65 in 6.2 mi SSW 15.0 mph - N/A   Partly Cloudy
10:25 PM 51.8 °F - 44.6 °F 76% 29.65 in 6.2 mi SSW 15.0 mph - N/A   Partly Cloudy
10:55 PM 50.0 °F - 46.4 °F 87% 29.68 in 6.2 mi SW 13.8 mph - N/A   Drizzle
11:00 PM 50 °F - 46 °F 81% 29.70 in 10 mi SW 13.4 mph - - Rain Rain
11:25 PM 50.0 °F - 44.6 °F 82% 29.68 in 6.2 mi SSW 13.8 mph - N/A   Partly Cloudy
11:55 PM 48.2 °F - 44.6 °F 87% 29.68 in 6.2 mi SSW 11.5 mph - N/A   Unknown